Página principal
METAR-TAF:

METAR-TAF

Aeroportos :

Brenham Municipal Airport

Brenham, Texas, Estados Unidos

latitude: 30-13-08N, longitude: 096-22-27W, altura: 94 m

Observação actual do tempo

O boletim foi feito há 25 minutos, às 13:35 UTC
Vento 4 kt de norte
Temperatura 11°C
Humidade 100%
Pressão 1008 hPa
Visibilidade: 4.0 km
Nuvens fragmentadasa uma altura de 400 ft
neblina

METAR: K11R 171335Z AUTO 35004KT 2 1/2SM BR BKN004 11/11 A2978 RMK AO2 T01080108

Hora: 08:00 (14:00 UTC)


TAF: em falta

Observações e previsões do tempo de mais de 4000 aeroportos (mensagens METAR e TAF).

As estações disponíveis são os pontos amarelos e vermelhos sobre o mapa.

Mova o rato sobre o mapa para ver o nome da estação.

Depois clique no ponto para visualizar as observações e previsões meteorológicas.

Para alterar o mapa : clique nos botões verdes com uma cruz preta para aumentar o zoom; no botão verde com uma pitada de zoom; ou nas setas verdes para mapas adjacentes.


METAR-TAF: